This is the latest recevied weather packets stored in our database for station/object KB3HLL. If no packets are shown the sender has not sent any weather packets the latest 10 day(s).
| Time | Temp. | Humidity | Pressure | Rain* | Wind** | Luminosity | Snow |
|---|---|---|---|---|---|---|---|
| 1777912878 | 16.11° C | 55% | 1012.3 hPa | 0 mm | - | 383 W/m² | - |
| 1777912578 | 16.11° C | 56% | 1012.3 hPa | 0 mm | - | 277 W/m² | - |
| 1777912278 | 16.11° C | 55% | 1012.3 hPa | 0 mm | - | 1088 W/m² | - |
| 1777911978 | 15.56° C | 56% | 1012.3 hPa | 0 mm | - | 1044 W/m² | - |
| 1777911678 | 15° C | 58% | 1012.4 hPa | 0 mm | - | 929 W/m² | - |
| 1777911378 | 14.44° C | 58% | 1012.5 hPa | 0 mm | - | 633 W/m² | - |
| 1777911078 | 14.44° C | 59% | 1012.6 hPa | 0 mm | - | 316 W/m² | - |
| 1777910778 | 14.44° C | 60% | 1012.7 hPa | 0 mm | - | 580 W/m² | - |
| 1777910478 | 15° C | 59% | 1012.8 hPa | 0 mm | - | 422 W/m² | - |
| 1777910178 | 15° C | 59% | 1012.8 hPa | 0 mm | - | 588 W/m² | - |
| 1777909879 | 14.44° C | 58% | 1012.9 hPa | 0 mm | - | 367 W/m² | - |
| 1777909578 | 15° C | 58% | 1013 hPa | 0 mm | - | 235 W/m² | - |
| 1777909278 | 14.44° C | 58% | 1013 hPa | 0 mm | - | 488 W/m² | - |
| 1777908978 | 13.89° C | 59% | 1013 hPa | 0 mm | - | 990 W/m² | - |
| 1777908679 | 13.33° C | 60% | 1013.3 hPa | 0 mm | - | 1020 W/m² | - |
| 1777908378 | 13.33° C | 61% | 1013.1 hPa | 0 mm | - | 505 W/m² | - |
| 1777908080 | 13.33° C | 60% | 1013.1 hPa | 0 mm | - | 945 W/m² | - |
| 1777907780 | 13.33° C | 61% | 1013.3 hPa | 0 mm | - | 355 W/m² | - |
| 1777907478 | 13.33° C | 60% | 1013.3 hPa | 0 mm | - | 866 W/m² | - |
| 1777907177 | 12.78° C | 62% | 1013.4 hPa | 0 mm | - | 641 W/m² | - |
| 1777906879 | 12.78° C | 62% | 1013.4 hPa | 0 mm | - | 713 W/m² | - |
| 1777906577 | 12.22° C | 62% | 1013.3 hPa | 0 mm | - | 153 W/m² | - |
| 1777906277 | 12.22° C | 61% | 1013.4 hPa | 0 mm | - | 512 W/m² | - |
| 1777905982 | 11.67° C | 64% | 1013.4 hPa | 0 mm | - | 611 W/m² | - |
| 1777905678 | 11.67° C | 63% | 1013.4 hPa | 0 mm | - | 774 W/m² | - |
* Rain latest hour (hover to see other rain measurements)
** Current wind speed in m/s (hover to see current wind gust speed)